Home > Weather > Brasilia > Past weeks

Flag for Brazil Weather for the Past 2 Weeks in Brasilia, Distrito Federal, Brazil

Now
75 °F

Sunny.


Feels Like: 78 °F
Forecast: 59 / 81 °F
Wind: 13 mph from Southeast

Location: Brasilia Aeroporto

Current Time: May 2, 2016 at 10:38:26 AM

Latest Report: May 2, 2016 at 10:00 AM


Visibility: 10 mi

Pressure: 30.21 "Hg (26.65 "Hg at 1091m altitude)

Humidity: 47%

Dew Point: 54 °F

Location of BrasiliaLocation

Historic Weather in Brasilia — Graph

°F

Brasilia Temperature Yesterday

Maximum temperature yesterday: 82 °F (at 2:00 PM)
Minimum temperature yesterday: 57 °F (at 6:00 AM)
Average temperature yesterday: 70 °F

High & Low Weather Summary for the Past Weeks

 TemperatureHumidityPressure
High86 °F (Apr 23, 2:00 PM)100% (Apr 27, 10:00 PM)30.24 "Hg (Apr 27, 10:00 PM)
Low57 °F (May 1, 6:00 AM)20% (Apr 22, 2:00 PM)29.95 "Hg (Apr 25, 3:00 PM)
Average72 °F65%30.10 "Hg
* Reported Apr 17 9:00 AM — May 2 9:00 AM, Brasilia, Weather by CustomWeather, © 2016

Note: Actual official high and low records may vary slightly from our data, if they occured in-between our weather recording intervals... More about our weather records

Advertising

Brasilia Weather History for the Previous 24 Hours

Scroll right to see more
 ConditionsComfort  
Time TempWeatherWind HumidityBarometerVisibility
9:00 AM
Mon, May 2
70 °FSunny.8 mph64%30.18 "Hg10 mi
8:00 AM66 °FSunny.No wind78%30.18 "Hg10 mi
7:00 AM61 °FSunny.3 mph88%30.15 "Hg10 mi
6:00 AM59 °FClear.2 mph94%30.12 "Hg10 mi
5:00 AM59 °FClear.2 mph94%30.12 "Hg10 mi
4:00 AM63 °FClear.2 mph83%30.09 "Hg10 mi
3:00 AM61 °FClear.3 mph88%30.09 "Hg10 mi
2:00 AM61 °FClear.2 mph88%30.12 "Hg10 mi
1:00 AM66 °FClear.5 mph73%30.12 "Hg10 mi
12:00 AM66 °FClear.No wind78%30.15 "Hg10 mi
11:00 PM
Sun, May 1
66 °FClear.2 mph78%30.15 "Hg10 mi
10:00 PM70 °FClear.5 mph64%30.15 "Hg10 mi
9:00 PM73 °FPassing clouds.7 mph53%30.15 "HgN/A
8:00 PM72 °FPassing clouds.5 mph65%30.12 "HgN/A
7:00 PM73 °FPassing clouds.7 mph61%30.09 "HgN/A
6:00 PM79 °FPassing clouds.8 mph45%30.09 "HgN/A
5:00 PM81 °FScattered clouds.9 mph42%30.07 "HgN/A
4:00 PM81 °FScattered clouds.8 mph39%30.07 "HgN/A
3:00 PM82 °FPassing clouds.7 mph37%30.07 "HgN/A
2:00 PM82 °FPassing clouds.5 mph35%30.09 "HgN/A
1:00 PM81 °FSunny.5 mph39%30.12 "Hg10 mi
12:00 PM79 °FSunny.6 mph39%30.15 "Hg10 mi
11:00 AM75 °FSunny.6 mph44%30.18 "Hg10 mi
10:00 AM72 °FSunny.7 mph53%30.18 "Hg10 mi
Weather by CustomWeather, © 2016

See weather overviewHow to use our weather pages